Mumbai, India

6:10 PM IST on May 30, 2017 (GMT +0530)
Chhatrapati Shivaji International

Weather History for VABB - May, 2013

Change the Weather History Date:

Sunday, May 26, 2013

  Actual Average Record
Temperature  
Mean Temperature 89 °F -  
Max Temperature 96 °F 86 °F 96 °F (2001)
Min Temperature 82 °F 77 °F 78 °F (1997)
Cooling Degree Days 24    
Growing Degree Days 39 (Base 50)    
Moisture  
Dew Point 77 °F    
Average Humidity 67    
Maximum Humidity 79    
Minimum Humidity 51    
Precipitation  
Precipitation 0.00 in - - ()
Sea Level Pressure  
Sea Level Pressure 29.76 in    
Wind  
Wind Speed 8 mph ()    
Max Wind Speed 14 mph    
Max Gust Speed 22 mph    
Visibility 3.4 miles    
Events      
Averages and records for this station are not official NWS values.
T = Trace of Precipitation, MM = Missing Value Source: Averaged Metar Reports

Daily Weather History Graph

Daily Weather History Graph

Search for Another Location

Airport or City:

Trip Planner

Search our weather history database for the weather conditions in past years. The results will help you decide how hot, cold, wet, or windy it might be!

Date:

Astronomy

May. 26, 2013 Rise Set
Actual Time 6:01 AM IST 7:10 PM IST
Civil Twilight 5:37 AM IST 7:34 PM IST
Nautical Twilight 5:08 AM IST 8:02 PM IST
Astronomical Twilight 4:39 AM IST 8:31 PM IST
Moon 8:33 PM IST (5/26) 6:59 AM IST (5/26)
Length of Visible Light 13h 57m
Length of Day
13h 09m
Full, 98% of the Moon is Illuminated
May 26
Full
Jun 1
Last Quarter
Jun 8
New
Jun 16
First Quarter
Jun 23
Full

Hourly Weather History & Observations

Time (IST) Temp. Heat Index Dew Point Humidity Pressure Visibility Wind Dir Wind Speed Gust Speed Precip Events Conditions
12:10 AM 86.0 °F 96.9 °F 77.0 °F 74% 29.80 in 3.1 mi SW 8.1 mph - N/A   Haze
12:40 AM 86.0 °F 96.9 °F 77.0 °F 74% 29.80 in 3.1 mi WSW 6.9 mph - N/A   Haze
1:10 AM 86.0 °F 96.9 °F 77.0 °F 74% 29.77 in 3.1 mi WSW 6.9 mph - N/A   Haze
1:40 AM 86.0 °F 96.9 °F 77.0 °F 74% 29.77 in 3.1 mi SW 5.8 mph - N/A   Haze
2:10 AM 86.0 °F 96.9 °F 77.0 °F 74% 29.74 in 3.1 mi SW 9.2 mph - N/A   Haze
2:30 AM 86 °F - 77 °F 68% 29.76 in 1 mi West 3.5 mph - -   Haze
2:40 AM 86.0 °F 96.9 °F 77.0 °F 74% 29.74 in 3.1 mi SW 9.2 mph - N/A   Haze
3:10 AM 86.0 °F 99.3 °F 78.8 °F 79% 29.74 in 3.1 mi WSW 8.1 mph - N/A   Haze
3:40 AM 86.0 °F 95.1 °F 75.2 °F 70% 29.74 in 3.1 mi WSW 9.2 mph - N/A   Haze
4:10 AM 86.0 °F 95.1 °F 75.2 °F 70% 29.74 in 3.1 mi WSW 10.4 mph - N/A   Haze
4:40 AM 86.0 °F 96.9 °F 77.0 °F 74% 29.74 in 3.1 mi WSW 6.9 mph - N/A   Haze
5:10 AM 86.0 °F 96.9 °F 77.0 °F 74% 29.74 in 3.1 mi SSW 5.8 mph - N/A   Haze
5:30 AM 85 °F - 77 °F 72% 29.74 in 1 mi West 3.5 mph - -   Haze
5:40 AM 86.0 °F 96.9 °F 77.0 °F 74% 29.74 in 3.1 mi SSW 6.9 mph - N/A   Haze
6:10 AM 86.0 °F 96.9 °F 77.0 °F 74% 29.74 in 3.1 mi WSW 5.8 mph - N/A   Haze
6:40 AM 86.0 °F 96.9 °F 77.0 °F 74% 29.77 in 3.1 mi SW 6.9 mph - N/A   Haze
7:10 AM 86.0 °F 96.9 °F 77.0 °F 74% 29.77 in 3.1 mi SW 8.1 mph - N/A   Haze
7:40 AM 87.8 °F 99.7 °F 77.0 °F 70% 29.77 in 3.1 mi SW 6.9 mph - N/A   Haze
8:10 AM 87.8 °F 99.7 °F 77.0 °F 70% 29.80 in 3.7 mi SSW 9.2 mph - N/A   Scattered Clouds
8:30 AM 88 °F - 78 °F 64% 29.79 in 1 mi West 4.6 mph - -   Smoke
8:40 AM 89.6 °F 102.2 °F 77.0 °F 66% 29.80 in 3.7 mi SW 8.1 mph - N/A   Scattered Clouds
9:10 AM 89.6 °F 102.2 °F 77.0 °F 66% 29.80 in 3.7 mi SW 8.1 mph - N/A   Scattered Clouds
9:40 AM 89.6 °F 102.2 °F 77.0 °F 66% 29.80 in 3.7 mi WSW 11.5 mph - N/A   Scattered Clouds
10:10 AM 89.6 °F 102.2 °F 77.0 °F 66% 29.80 in 3.7 mi SW 11.5 mph - N/A   Scattered Clouds
10:40 AM 89.6 °F 99.8 °F 75.2 °F 62% 29.80 in 3.7 mi WSW 10.4 mph - N/A   Scattered Clouds
11:10 AM 89.6 °F 99.8 °F 75.2 °F 62% 29.80 in 3.7 mi SSW 11.5 mph - N/A   Scattered Clouds
11:30 AM 92 °F - 77 °F 54% 29.80 in 2 mi SW 13.8 mph - -   Mostly Cloudy
11:40 AM 91.4 °F 102.5 °F 75.2 °F 59% 29.80 in 4.3 mi WSW 12.7 mph - N/A   Scattered Clouds
12:10 PM 91.4 °F 105.1 °F 77.0 °F 63% 29.77 in 4.3 mi SW 13.8 mph - N/A   Scattered Clouds
12:40 PM 91.4 °F 105.1 °F 77.0 °F 63% 29.77 in 4.3 mi WSW 10.4 mph 21.9 mph N/A   Scattered Clouds
1:10 PM 89.6 °F 102.2 °F 77.0 °F 66% 29.77 in 4.3 mi WSW 9.2 mph 20.7 mph N/A   Scattered Clouds
1:40 PM 91.4 °F 105.1 °F 77.0 °F 63% 29.77 in 4.3 mi WSW 9.2 mph 20.7 mph N/A   Scattered Clouds
2:10 PM 91.4 °F 100.1 °F 73.4 °F 55% 29.74 in 4.3 mi WSW 9.2 mph 20.7 mph N/A   Scattered Clouds
2:30 PM 93 °F - 77 °F 51% 29.74 in 6 mi West 9.2 mph - -   Partly Cloudy
2:40 PM 91.4 °F 100.1 °F 73.4 °F 55% 29.74 in 4.3 mi West 9.2 mph 20.7 mph N/A   Scattered Clouds
3:10 PM 89.6 °F 99.8 °F 75.2 °F 62% 29.74 in 5.0 mi West 9.2 mph 20.7 mph N/A   Scattered Clouds
3:40 PM 89.6 °F 99.8 °F 75.2 °F 62% 29.71 in 5.0 mi WSW 9.2 mph 20.7 mph N/A   Partly Cloudy
4:10 PM 89.6 °F 99.8 °F 75.2 °F 62% 29.71 in 5.0 mi West 13.8 mph - N/A   Partly Cloudy
4:40 PM 89.6 °F 98.2 °F 73.4 °F 59% 29.71 in 5.0 mi West 9.2 mph - N/A   Partly Cloudy
5:10 PM 89.6 °F 102.2 °F 77.0 °F 66% 29.71 in 5.0 mi West 12.7 mph - N/A   Partly Cloudy
5:30 PM 92 °F - 77 °F 53% 29.70 in 2 mi West 4.6 mph - -   Partly Cloudy
5:40 PM 89.6 °F 102.2 °F 77.0 °F 66% 29.71 in 5.0 mi WSW 11.5 mph - N/A   Partly Cloudy
6:10 PM 87.8 °F 99.7 °F 77.0 °F 70% 29.71 in 5.0 mi WNW 9.2 mph - N/A   Partly Cloudy
6:40 PM 87.8 °F 99.7 °F 77.0 °F 70% 29.71 in 5.0 mi WSW 12.7 mph - N/A   Partly Cloudy
7:10 PM 96.8 °F 112.2 °F 77.0 °F 53% 29.71 in 3.7 mi WSW 10.4 mph - N/A   Partly Cloudy
8:10 PM 87.8 °F 99.7 °F 77.0 °F 70% 29.74 in 3.1 mi WSW 10.4 mph - N/A   Smoke
8:30 PM 87 °F - 78 °F 68% 29.74 in 1 mi West 6.9 mph - -   Smoke
8:40 PM 86.0 °F 96.9 °F 77.0 °F 74% 29.74 in 3.1 mi WSW 10.4 mph - N/A   Smoke
9:10 PM 87.8 °F 99.7 °F 77.0 °F 70% 29.74 in 3.1 mi WSW 10.4 mph - N/A   Haze
9:40 PM 86.0 °F 96.9 °F 77.0 °F 74% 29.77 in 3.1 mi WSW 9.2 mph - N/A   Haze
10:10 PM 87.8 °F 99.7 °F 77.0 °F 70% 29.77 in 3.1 mi WSW 9.2 mph - N/A   Haze
10:40 PM 86.0 °F 96.9 °F 77.0 °F 74% 29.80 in 3.1 mi WSW 10.4 mph - N/A   Haze
11:10 PM 86.0 °F 96.9 °F 77.0 °F 74% 29.80 in 3.1 mi WSW 11.5 mph - N/A   Haze
11:30 PM 87 °F - 78 °F 67% 29.79 in 1 mi West 6.9 mph - -   Smoke
11:40 PM 86.0 °F 96.9 °F 77.0 °F 74% 29.80 in 3.1 mi WSW 11.5 mph - N/A   Haze